Weather History for Marathon, FL

Change the Weather History Date:

Thursday, October 11, 2012

  Actual Average Record
Temperature  
Mean Temperature 84 °F 82 °F  
Max Temperature 88 °F 87 °F 91 °F (2002)
Min Temperature 80 °F 77 °F 73 °F (1999)
Degree Days  
Heating Degree Days 0 0  
Month to date heating degree days 0 0  
Since 1 July heating degree days 0 0  
Cooling Degree Days 19 17  
Month to date cooling degree days 211 192  
Year to date cooling degree days 4454 4146  
Growing Degree Days 34 (Base 50)    
Moisture  
Dew Point 71 °F    
Average Humidity 65    
Maximum Humidity 79    
Minimum Humidity 50    
Precipitation  
Precipitation 0.00 in 0.18 in 0.68 in (2006)
Month to date precipitation 1.97 1.99  
Year to date precipitation 42.10 38.54  
Snow  
Snow 0.00 in - - ()
Month to date snowfall 0.0  
Since 1 July snowfall 0.0  
Since 1 September snowfall 0.0  
Snow Depth 0.00 in    
Sea Level Pressure  
Sea Level Pressure 30.05 in    
Wind  
Wind Speed 15 mph (NE)    
Max Wind Speed 20 mph    
Max Gust Speed 26 mph    
Visibility 10 miles    
Events      
T = Trace of Precipitation, MM = Missing Value Source: NWS Daily Summary

Daily Weather History Graph

Daily Weather History Graph

Search for Another Location

Airport:

Trip Planner

Search our weather history database for the weather conditions in past years. The results will help you decide how hot, cold, wet, or windy it might be!

Date:

Astronomy

Oct. 11, 2012 Rise Set
Actual Time 7:20 AM EDT 7:00 PM EDT
Civil Twilight 6:57 AM EDT 7:23 PM EDT
Nautical Twilight 6:31 AM EDT 7:49 PM EDT
Astronomical Twilight 6:04 AM EDT 8:16 PM EDT
Moon 3:22 AM EDT (10/11) 4:15 PM EDT (10/11)
Length of Visible Light 12h 25m
Length of Day
11h 40m
Waning Crescent, 18% of the Moon is Illuminated
Oct 11
Waning Crescent
Oct 15
New
Oct 21
First Quarter
Oct 29
Full
Nov 6
Last Quarter

Hourly Weather History & Observations

Time (EDT) Temp. Heat Index Dew Point Humidity Pressure Visibility Wind Dir Wind Speed Gust Speed Precip Events Conditions
12:53 AM 82.9 °F 90.2 °F 75.0 °F 77% 30.03 in 10.0 mi ENE 11.5 mph 19.6 mph N/A   Scattered Clouds
1:53 AM 82.9 °F 89.4 °F 73.9 °F 74% 30.03 in 10.0 mi ENE 12.7 mph 18.4 mph N/A   Scattered Clouds
2:53 AM 82.9 °F 88.8 °F 73.0 °F 72% 30.02 in 10.0 mi NE 15.0 mph - N/A   Scattered Clouds
3:53 AM 82.9 °F 88.8 °F 73.0 °F 72% 30.01 in 10.0 mi ENE 13.8 mph - N/A   Mostly Cloudy
4:53 AM 82.0 °F 87.9 °F 73.9 °F 76% 30.01 in 10.0 mi NE 13.8 mph - N/A   Mostly Cloudy
5:01 AM 82.4 °F 88.2 °F 73.4 °F 74% 30.01 in 10.0 mi NE 15.0 mph - N/A   Scattered Clouds
5:53 AM 81.0 °F 85.8 °F 73.0 °F 77% 30.03 in 10.0 mi NE 15.0 mph - N/A   Clear
6:53 AM 80.1 °F 84.2 °F 73.0 °F 79% 30.04 in 10.0 mi NE 16.1 mph 21.9 mph N/A   Clear
7:53 AM 80.1 °F 83.6 °F 71.1 °F 74% 30.05 in 10.0 mi NE 15.0 mph - N/A   Clear
8:53 AM 81.0 °F 84.9 °F 71.1 °F 72% 30.07 in 10.0 mi NE 13.8 mph - N/A   Clear
9:53 AM 82.9 °F 88.0 °F 72.0 °F 69% 30.09 in 10.0 mi NE 16.1 mph - N/A   Clear
10:53 AM 84.0 °F 87.8 °F 69.1 °F 61% 30.11 in 10.0 mi NE 15.0 mph - N/A   Clear
11:53 AM 84.9 °F 88.8 °F 69.1 °F 59% 30.10 in 10.0 mi NE 15.0 mph 21.9 mph N/A   Clear
12:53 PM 87.1 °F 91.3 °F 69.1 °F 55% 30.09 in 10.0 mi ENE 15.0 mph - N/A   Partly Cloudy
1:53 PM 87.1 °F 89.9 °F 66.9 °F 51% 30.07 in 10.0 mi NE 15.0 mph - N/A   Partly Cloudy
2:53 PM 88.0 °F 90.3 °F 66.0 °F 48% 30.06 in 10.0 mi NE 15.0 mph - N/A   Clear
3:53 PM 87.1 °F 89.9 °F 66.9 °F 51% 30.05 in 10.0 mi NE 13.8 mph - N/A   Clear
4:53 PM 86.0 °F 89.4 °F 68.0 °F 55% 30.04 in 10.0 mi NE 17.3 mph - N/A   Clear
7:53 PM 82.9 °F 85.8 °F 68.0 °F 60% 30.06 in 10.0 mi ENE 16.1 mph 25.3 mph N/A   Clear
9:53 PM 81.0 °F 83.8 °F 68.0 °F 65% 30.08 in 10.0 mi NE 15.0 mph 24.2 mph N/A   Clear
11:53 PM 80.1 °F 82.7 °F 68.0 °F 67% 30.07 in 10.0 mi NNE 17.3 mph - N/A   Clear